Year,Month,Day,Hour,Minute,Value (Times are PST for temperature in C)
2008,07,13,00,00,19.50
2008,07,13,00,01,19.50
2008,07,13,00,02,19.50
2008,07,13,00,03,19.50
2008,07,13,00,04,19.50
2008,07,13,00,05,19.40
2008,07,13,00,06,19.40
2008,07,13,00,07,19.40
2008,07,13,00,08,19.40
2008,07,13,00,09,19.30
2008,07,13,00,10,19.30
2008,07,13,00,11,19.30
2008,07,13,00,12,19.30
2008,07,13,00,13,19.30
2008,07,13,00,14,19.20
2008,07,13,00,15,19.20
2008,07,13,00,16,19.20
2008,07,13,00,17,19.20
2008,07,13,00,18,19.10
2008,07,13,00,19,19.10
2008,07,13,00,20,19.10
2008,07,13,00,21,19.10
2008,07,13,00,22,19.00
2008,07,13,00,23,18.90
2008,07,13,00,24,18.90
2008,07,13,00,25,18.90
2008,07,13,00,26,18.90
2008,07,13,00,27,18.90
2008,07,13,00,28,18.90
2008,07,13,00,29,18.80
2008,07,13,00,30,18.80
2008,07,13,00,31,18.70
2008,07,13,00,32,18.70
2008,07,13,00,33,18.70
2008,07,13,00,34,18.60
2008,07,13,00,35,18.60
2008,07,13,00,36,18.60
2008,07,13,00,37,18.50
2008,07,13,00,38,18.50
2008,07,13,00,39,18.50
2008,07,13,00,40,18.50
2008,07,13,00,41,18.50
2008,07,13,00,42,18.50
2008,07,13,00,43,18.50
2008,07,13,00,44,18.40
2008,07,13,00,45,18.40
2008,07,13,00,46,18.30
2008,07,13,00,47,18.30
2008,07,13,00,48,18.30
2008,07,13,00,49,18.30
2008,07,13,00,50,18.30
2008,07,13,00,51,18.20
2008,07,13,00,52,18.20
2008,07,13,00,53,18.20
2008,07,13,00,54,18.10
2008,07,13,00,55,18.10
2008,07,13,00,56,18.10
2008,07,13,00,57,17.90
2008,07,13,00,58,17.90
2008,07,13,00,59,17.90
2008,07,13,01,00,17.90
2008,07,13,01,01,17.90
2008,07,13,01,02,17.90
2008,07,13,01,03,17.90
2008,07,13,01,04,17.90
2008,07,13,01,05,17.80
2008,07,13,01,06,17.80
2008,07,13,01,07,17.80
2008,07,13,01,08,17.80
2008,07,13,01,09,17.80
2008,07,13,01,10,17.80
2008,07,13,01,11,17.90
2008,07,13,01,12,17.80
2008,07,13,01,13,17.80
2008,07,13,01,14,17.80
2008,07,13,01,15,17.90
2008,07,13,01,16,17.90
2008,07,13,01,17,17.90
2008,07,13,01,18,17.90
2008,07,13,01,19,17.90
2008,07,13,01,20,17.90
2008,07,13,01,21,17.90
2008,07,13,01,22,17.90
2008,07,13,01,23,17.90
2008,07,13,01,24,17.90
2008,07,13,01,25,17.90
2008,07,13,01,26,17.80
2008,07,13,01,27,17.80
2008,07,13,01,28,17.70
2008,07,13,01,29,17.70
2008,07,13,01,30,17.70
2008,07,13,01,31,17.60
2008,07,13,01,32,17.60
2008,07,13,01,33,17.60
2008,07,13,01,34,17.50
2008,07,13,01,35,17.50
2008,07,13,01,36,17.50
2008,07,13,01,37,17.40
2008,07,13,01,38,17.40
2008,07,13,01,39,17.40
2008,07,13,01,40,17.40
2008,07,13,01,41,17.40
2008,07,13,01,42,17.40
2008,07,13,01,43,17.30
2008,07,13,01,44,17.30
2008,07,13,01,45,17.30
2008,07,13,01,46,17.30
2008,07,13,01,47,17.30
2008,07,13,01,48,17.30
2008,07,13,01,49,17.30
2008,07,13,01,50,17.30
2008,07,13,01,51,17.30
2008,07,13,01,52,17.30
2008,07,13,01,53,17.30
2008,07,13,01,54,17.30
2008,07,13,01,55,17.30
2008,07,13,01,56,17.30
2008,07,13,01,57,17.30
2008,07,13,01,58,17.30
2008,07,13,01,59,17.30
2008,07,13,02,00,17.30
2008,07,13,02,01,17.30
2008,07,13,02,02,17.30
2008,07,13,02,03,17.30
2008,07,13,02,04,17.30
2008,07,13,02,05,17.30
2008,07,13,02,06,17.40
2008,07,13,02,07,17.40
2008,07,13,02,08,17.50
2008,07,13,02,09,17.50
2008,07,13,02,10,17.50
2008,07,13,02,11,17.50
2008,07,13,02,12,17.50
2008,07,13,02,13,17.50
2008,07,13,02,14,17.50
2008,07,13,02,15,17.50
2008,07,13,02,16,17.50
2008,07,13,02,17,17.50
2008,07,13,02,18,17.50
2008,07,13,02,19,17.50
2008,07,13,02,20,17.50
2008,07,13,02,21,17.50
2008,07,13,02,22,17.60
2008,07,13,02,23,17.60
2008,07,13,02,24,17.60
2008,07,13,02,25,17.60
2008,07,13,02,26,17.60
2008,07,13,02,27,17.60
2008,07,13,02,28,17.60
2008,07,13,02,29,17.60
2008,07,13,02,30,17.60
2008,07,13,02,31,17.60
2008,07,13,02,32,17.50
2008,07,13,02,33,17.50
2008,07,13,02,34,17.50
2008,07,13,02,35,17.40
2008,07,13,02,36,17.40
2008,07,13,02,37,17.40
2008,07,13,02,38,17.30
2008,07,13,02,39,17.30
2008,07,13,02,40,17.30
2008,07,13,02,41,17.30
2008,07,13,02,42,17.30
2008,07,13,02,43,17.30
2008,07,13,02,44,17.30
2008,07,13,02,45,17.30
2008,07,13,02,46,17.30
2008,07,13,02,47,17.30
2008,07,13,02,48,17.30
2008,07,13,02,49,17.30
2008,07,13,02,50,17.30
2008,07,13,02,51,17.30
2008,07,13,02,52,17.20
2008,07,13,02,53,17.20
2008,07,13,02,54,17.20
2008,07,13,02,55,17.10
2008,07,13,02,56,17.10
2008,07,13,02,57,17.10
2008,07,13,02,58,17.10
2008,07,13,02,59,17.10
2008,07,13,03,00,17.10
2008,07,13,03,01,17.10
2008,07,13,03,02,17.10
2008,07,13,03,03,17.10
2008,07,13,03,04,17.10
2008,07,13,03,05,17.00
2008,07,13,03,06,17.00
2008,07,13,03,07,17.00
2008,07,13,03,08,16.90
2008,07,13,03,09,16.90
2008,07,13,03,10,16.80
2008,07,13,03,11,16.80
2008,07,13,03,12,16.80
2008,07,13,03,13,16.80
2008,07,13,03,14,16.90
2008,07,13,03,15,16.90
2008,07,13,03,16,16.90
2008,07,13,03,17,16.90
2008,07,13,03,18,16.90
2008,07,13,03,19,16.90
2008,07,13,03,20,16.90
2008,07,13,03,21,16.90
2008,07,13,03,22,16.80
2008,07,13,03,23,16.80
2008,07,13,03,24,16.80
2008,07,13,03,25,16.70
2008,07,13,03,26,16.70
2008,07,13,03,27,16.70
2008,07,13,03,28,16.70
2008,07,13,03,29,16.70
2008,07,13,03,30,16.70
2008,07,13,03,31,16.70
2008,07,13,03,32,16.70
2008,07,13,03,33,16.70
2008,07,13,03,34,16.70
2008,07,13,03,35,16.70
2008,07,13,03,36,16.70
2008,07,13,03,37,16.70
2008,07,13,03,38,16.70
2008,07,13,03,39,16.70
2008,07,13,03,40,16.70
2008,07,13,03,41,16.70
2008,07,13,03,42,16.70
2008,07,13,03,43,16.70
2008,07,13,03,44,16.70
2008,07,13,03,45,16.60
2008,07,13,03,46,16.60
2008,07,13,03,47,16.60
2008,07,13,03,48,16.60
2008,07,13,03,49,16.60
2008,07,13,03,50,16.60
2008,07,13,03,51,16.60
2008,07,13,03,52,16.60
2008,07,13,03,53,16.60
2008,07,13,03,54,16.70
2008,07,13,03,55,16.70
2008,07,13,03,56,16.70
2008,07,13,03,57,16.70
2008,07,13,03,58,16.70
2008,07,13,03,59,16.70
2008,07,13,04,00,16.70
2008,07,13,04,01,16.70
2008,07,13,04,02,16.70
2008,07,13,04,03,16.70
2008,07,13,04,04,16.60
2008,07,13,04,05,16.60
2008,07,13,04,06,16.60
2008,07,13,04,07,16.40
2008,07,13,04,08,16.40
2008,07,13,04,09,16.30
2008,07,13,04,10,16.30
2008,07,13,04,11,16.30
2008,07,13,04,12,16.20
2008,07,13,04,13,16.20
2008,07,13,04,14,16.10
2008,07,13,04,15,16.10
2008,07,13,04,16,16.10
2008,07,13,04,17,16.10
2008,07,13,04,18,16.00
2008,07,13,04,19,15.90
2008,07,13,04,20,15.90
2008,07,13,04,21,15.80
2008,07,13,04,22,15.80
2008,07,13,04,23,15.80
2008,07,13,04,24,15.80
2008,07,13,04,25,15.80
2008,07,13,04,26,15.80
2008,07,13,04,27,15.80
2008,07,13,04,28,15.80
2008,07,13,04,29,15.80
2008,07,13,04,30,15.80
2008,07,13,04,31,15.70
2008,07,13,04,32,15.70
2008,07,13,04,33,15.70
2008,07,13,04,34,15.60
2008,07,13,04,35,15.50
2008,07,13,04,36,15.50
2008,07,13,04,37,15.50
2008,07,13,04,38,15.40
2008,07,13,04,39,15.40
2008,07,13,04,40,15.40
2008,07,13,04,41,15.30
2008,07,13,04,42,15.30
2008,07,13,04,43,15.30
2008,07,13,04,44,15.30
2008,07,13,04,45,15.30
2008,07,13,04,46,15.30
2008,07,13,04,47,15.30
2008,07,13,04,48,15.30
2008,07,13,04,49,15.30
2008,07,13,04,50,15.30
2008,07,13,04,51,15.30
2008,07,13,04,52,15.30
2008,07,13,04,53,15.30
2008,07,13,04,54,15.30
2008,07,13,04,55,15.40
2008,07,13,04,56,15.50
2008,07,13,04,57,15.60
2008,07,13,04,58,15.60
2008,07,13,04,59,15.70
2008,07,13,05,00,15.80
2008,07,13,05,01,15.80
2008,07,13,05,02,15.80
2008,07,13,05,03,15.90
2008,07,13,05,04,15.90
2008,07,13,05,05,15.90
2008,07,13,05,06,15.90
2008,07,13,05,07,15.90
2008,07,13,05,08,15.90
2008,07,13,05,09,15.90
2008,07,13,05,10,15.90
2008,07,13,05,11,15.90
2008,07,13,05,12,15.90
2008,07,13,05,13,15.90
2008,07,13,05,14,15.90
2008,07,13,05,15,15.90
2008,07,13,05,16,15.90
2008,07,13,05,17,15.90
2008,07,13,05,18,15.90
2008,07,13,05,19,15.80
2008,07,13,05,20,15.80
2008,07,13,05,21,15.80
2008,07,13,05,22,15.80
2008,07,13,05,23,15.80
2008,07,13,05,24,15.80
2008,07,13,05,25,15.80
2008,07,13,05,26,15.80
2008,07,13,05,27,15.80
2008,07,13,05,28,15.70
2008,07,13,05,29,15.70
2008,07,13,05,30,15.70
2008,07,13,05,31,15.70
2008,07,13,05,32,15.60
2008,07,13,05,33,15.60
2008,07,13,05,34,15.60
2008,07,13,05,35,15.60
2008,07,13,05,36,15.50
2008,07,13,05,37,15.50
2008,07,13,05,38,15.50
2008,07,13,05,39,15.50
2008,07,13,05,40,15.50
2008,07,13,05,41,15.50
2008,07,13,05,42,15.50
2008,07,13,05,43,15.40
2008,07,13,05,44,15.40
2008,07,13,05,45,15.40
2008,07,13,05,46,15.40
2008,07,13,05,47,15.40
2008,07,13,05,48,15.40
2008,07,13,05,49,15.40
2008,07,13,05,50,15.40
2008,07,13,05,51,15.40
2008,07,13,05,52,15.40
2008,07,13,05,53,15.40
2008,07,13,05,54,15.40
2008,07,13,05,55,15.40
2008,07,13,05,56,15.40
2008,07,13,05,57,15.40
2008,07,13,05,58,15.40
2008,07,13,05,59,15.40
2008,07,13,06,00,15.40
2008,07,13,06,01,15.40
2008,07,13,06,02,15.40
2008,07,13,06,03,15.50
2008,07,13,06,04,15.50
2008,07,13,06,05,15.50
2008,07,13,06,06,15.60
2008,07,13,06,07,15.60
2008,07,13,06,08,15.60
2008,07,13,06,09,15.60
2008,07,13,06,10,15.70
2008,07,13,06,11,15.80
2008,07,13,06,12,15.80
2008,07,13,06,13,15.80
2008,07,13,06,14,15.80
2008,07,13,06,15,15.90
2008,07,13,06,16,15.90
2008,07,13,06,17,16.00
2008,07,13,06,18,16.10
2008,07,13,06,19,16.10
2008,07,13,06,20,16.10
2008,07,13,06,21,16.10
2008,07,13,06,22,16.10
2008,07,13,06,23,16.10
2008,07,13,06,24,16.10
2008,07,13,06,25,16.10
2008,07,13,06,26,16.10
2008,07,13,06,27,16.20
2008,07,13,06,28,16.20
2008,07,13,06,29,16.30
2008,07,13,06,30,16.30
2008,07,13,06,31,16.40
2008,07,13,06,32,16.40
2008,07,13,06,33,16.40
2008,07,13,06,34,16.40
2008,07,13,06,35,16.40
2008,07,13,06,36,16.40
2008,07,13,06,37,16.40
2008,07,13,06,38,16.40
2008,07,13,06,39,16.40
2008,07,13,06,40,16.40
2008,07,13,06,41,16.60
2008,07,13,06,42,16.60
2008,07,13,06,43,16.60
2008,07,13,06,44,16.70
2008,07,13,06,45,16.70
2008,07,13,06,46,16.70
2008,07,13,06,47,16.70
2008,07,13,06,48,16.80
2008,07,13,06,49,16.80
2008,07,13,06,50,16.90
2008,07,13,06,51,16.90
2008,07,13,06,52,17.00
2008,07,13,06,53,17.00
2008,07,13,06,54,17.10
2008,07,13,06,55,17.10
2008,07,13,06,56,17.20
2008,07,13,06,57,17.20
2008,07,13,06,58,17.30
2008,07,13,06,59,17.30
2008,07,13,07,00,17.30
2008,07,13,07,01,17.40
2008,07,13,07,02,17.40
2008,07,13,07,03,17.40
2008,07,13,07,04,17.50
2008,07,13,07,05,17.50
2008,07,13,07,06,17.60
2008,07,13,07,07,17.60
2008,07,13,07,08,17.70
2008,07,13,07,09,17.70
2008,07,13,07,10,17.80
2008,07,13,07,11,17.90
2008,07,13,07,12,17.90
2008,07,13,07,13,18.00
2008,07,13,07,14,18.10
2008,07,13,07,15,18.20
2008,07,13,07,16,18.20
2008,07,13,07,17,18.30
2008,07,13,07,18,18.30
2008,07,13,07,19,18.30
2008,07,13,07,20,18.40
2008,07,13,07,21,18.40
2008,07,13,07,22,18.40
2008,07,13,07,23,18.40
2008,07,13,07,24,18.50
2008,07,13,07,25,18.50
2008,07,13,07,26,18.50
2008,07,13,07,27,18.50
2008,07,13,07,28,18.40
2008,07,13,07,29,18.40
2008,07,13,07,30,18.30
2008,07,13,07,31,18.30
2008,07,13,07,32,18.30
2008,07,13,07,33,18.30
2008,07,13,07,34,18.30
2008,07,13,07,35,18.30
2008,07,13,07,36,18.30
2008,07,13,07,37,18.40
2008,07,13,07,38,18.40
2008,07,13,07,39,18.40
2008,07,13,07,40,18.40
2008,07,13,07,41,18.50
2008,07,13,07,42,18.50
2008,07,13,07,43,18.50
2008,07,13,07,44,18.50
2008,07,13,07,45,18.60
2008,07,13,07,46,18.60
2008,07,13,07,47,18.60
2008,07,13,07,48,18.60
2008,07,13,07,49,18.60
2008,07,13,07,50,18.70
2008,07,13,07,51,18.70
2008,07,13,07,52,18.70
2008,07,13,07,53,18.70
2008,07,13,07,54,18.80
2008,07,13,07,55,18.90
2008,07,13,07,56,18.90
2008,07,13,07,57,19.00
2008,07,13,07,58,19.10
2008,07,13,07,59,19.20
2008,07,13,08,00,19.30
2008,07,13,08,01,19.40
2008,07,13,08,02,19.40
2008,07,13,08,03,19.50
2008,07,13,08,04,19.60
2008,07,13,08,05,19.60
2008,07,13,08,06,19.80
2008,07,13,08,07,19.90
2008,07,13,08,08,20.10
2008,07,13,08,09,20.20
2008,07,13,08,10,20.30
2008,07,13,08,11,20.40
2008,07,13,08,12,20.50
2008,07,13,08,13,20.70
2008,07,13,08,14,20.80
2008,07,13,08,15,21.00
2008,07,13,08,16,21.20
2008,07,13,08,17,21.30
2008,07,13,08,18,21.30
2008,07,13,08,19,21.30
2008,07,13,08,20,21.30
2008,07,13,08,21,21.20
2008,07,13,08,22,21.20
2008,07,13,08,23,21.20
2008,07,13,08,24,21.20
2008,07,13,08,25,21.10
2008,07,13,08,26,21.00
2008,07,13,08,27,21.00
2008,07,13,08,28,21.00
2008,07,13,08,29,21.00
2008,07,13,08,30,21.00
2008,07,13,08,31,21.00
2008,07,13,08,32,21.00
2008,07,13,08,33,21.00
2008,07,13,08,34,21.00
2008,07,13,08,35,21.00
2008,07,13,08,36,20.90
2008,07,13,08,37,20.80
2008,07,13,08,38,20.80
2008,07,13,08,39,20.70
2008,07,13,08,40,20.70
2008,07,13,08,41,20.80
2008,07,13,08,42,20.80
2008,07,13,08,43,21.00
2008,07,13,08,44,21.00
2008,07,13,08,45,21.00
2008,07,13,08,46,21.00
2008,07,13,08,47,21.10
2008,07,13,08,48,21.20
2008,07,13,08,49,21.20
2008,07,13,08,50,21.10
2008,07,13,08,51,21.10
2008,07,13,08,52,21.10
2008,07,13,08,53,21.20
2008,07,13,08,54,21.20
2008,07,13,08,55,21.20
2008,07,13,08,56,21.20
2008,07,13,08,57,21.20
2008,07,13,08,58,21.20
2008,07,13,08,59,21.20
2008,07,13,09,00,21.30
2008,07,13,09,01,21.30
2008,07,13,09,02,21.30
2008,07,13,09,03,21.30
2008,07,13,09,04,21.40
2008,07,13,09,05,21.50
2008,07,13,09,06,21.60
2008,07,13,09,07,21.60
2008,07,13,09,08,21.40
2008,07,13,09,09,21.40
2008,07,13,09,10,21.50
2008,07,13,09,11,21.40
2008,07,13,09,12,21.50
2008,07,13,09,13,21.60
2008,07,13,09,14,21.60
2008,07,13,09,15,21.60
2008,07,13,09,16,21.70
2008,07,13,09,17,21.70
2008,07,13,09,18,21.70
2008,07,13,09,19,21.80
2008,07,13,09,20,21.90
2008,07,13,09,21,22.00
2008,07,13,09,22,22.10
2008,07,13,09,23,22.10
2008,07,13,09,24,22.10
2008,07,13,09,25,22.10
2008,07,13,09,26,22.20
2008,07,13,09,27,22.30
2008,07,13,09,28,22.30
2008,07,13,09,29,22.20
2008,07,13,09,30,22.00
2008,07,13,09,31,21.90
2008,07,13,09,32,21.90
2008,07,13,09,33,21.90
2008,07,13,09,34,21.90
2008,07,13,09,35,22.00
2008,07,13,09,36,22.00
2008,07,13,09,37,21.90
2008,07,13,09,38,21.90
2008,07,13,09,39,22.00
2008,07,13,09,40,22.00
2008,07,13,09,41,22.10
2008,07,13,09,42,22.10
2008,07,13,09,43,22.10
2008,07,13,09,44,22.10
2008,07,13,09,45,22.20
2008,07,13,09,46,22.20
2008,07,13,09,47,22.30
2008,07,13,09,48,22.40
2008,07,13,09,49,22.50
2008,07,13,09,50,22.60
2008,07,13,09,51,22.70
2008,07,13,09,52,22.70
2008,07,13,09,53,22.70
2008,07,13,09,54,22.60
2008,07,13,09,55,22.60
2008,07,13,09,56,22.60
2008,07,13,09,57,22.40
2008,07,13,09,58,22.40
2008,07,13,09,59,22.20
2008,07,13,10,00,22.20
2008,07,13,10,01,22.10
2008,07,13,10,02,22.10
2008,07,13,10,03,22.10
2008,07,13,10,04,22.20
2008,07,13,10,05,22.30
2008,07,13,10,06,22.30
2008,07,13,10,07,22.40
2008,07,13,10,08,22.30
2008,07,13,10,09,22.10
2008,07,13,10,10,21.90
2008,07,13,10,11,21.60
2008,07,13,10,12,21.60
2008,07,13,10,13,21.60
2008,07,13,10,14,21.60
2008,07,13,10,15,21.70
2008,07,13,10,16,21.80
2008,07,13,10,17,21.90
2008,07,13,10,18,22.00
2008,07,13,10,19,21.90
2008,07,13,10,20,21.80
2008,07,13,10,21,21.80
2008,07,13,10,22,21.80
2008,07,13,10,23,21.80
2008,07,13,10,24,21.80
2008,07,13,10,25,21.90
2008,07,13,10,26,21.90
2008,07,13,10,27,22.00
2008,07,13,10,28,22.10
2008,07,13,10,29,22.20
2008,07,13,10,30,22.10
2008,07,13,10,31,21.80
2008,07,13,10,32,21.40
2008,07,13,10,33,21.20
2008,07,13,10,34,21.10
2008,07,13,10,35,21.10
2008,07,13,10,36,21.10
2008,07,13,10,37,21.10
2008,07,13,10,38,21.30
2008,07,13,10,39,21.30
2008,07,13,10,40,21.30
2008,07,13,10,41,21.30
2008,07,13,10,42,21.30
2008,07,13,10,43,21.40
2008,07,13,10,44,21.50
2008,07,13,10,45,21.30
2008,07,13,10,46,21.20
2008,07,13,10,47,21.20
2008,07,13,10,48,21.30
2008,07,13,10,49,21.30
2008,07,13,10,50,21.30
2008,07,13,10,51,21.00
2008,07,13,10,52,20.70
2008,07,13,10,53,20.70
2008,07,13,10,54,20.70
2008,07,13,10,55,20.70
2008,07,13,10,56,20.80
2008,07,13,10,57,20.90
2008,07,13,10,58,21.00
2008,07,13,10,59,21.20
2008,07,13,11,00,21.30
2008,07,13,11,01,21.20
2008,07,13,11,02,21.20
2008,07,13,11,03,21.30
2008,07,13,11,04,21.20
2008,07,13,11,05,21.20
2008,07,13,11,06,21.20
2008,07,13,11,07,21.30
2008,07,13,11,08,21.30
2008,07,13,11,09,21.10
2008,07,13,11,10,21.00
2008,07,13,11,11,21.00
2008,07,13,11,12,21.00
2008,07,13,11,13,21.10
2008,07,13,11,14,21.10
2008,07,13,11,15,21.20
2008,07,13,11,16,21.30
2008,07,13,11,17,21.20
2008,07,13,11,18,21.20
2008,07,13,11,19,21.30
2008,07,13,11,20,21.20
2008,07,13,11,21,21.20
2008,07,13,11,22,21.10
2008,07,13,11,23,21.00
2008,07,13,11,24,20.90
2008,07,13,11,25,21.00
2008,07,13,11,26,21.10
2008,07,13,11,27,21.10
2008,07,13,11,28,21.10
2008,07,13,11,29,21.00
2008,07,13,11,30,21.00
2008,07,13,11,31,21.20
2008,07,13,11,32,21.30
2008,07,13,11,33,21.30
2008,07,13,11,34,21.60
2008,07,13,11,35,21.70
2008,07,13,11,36,21.80
2008,07,13,11,37,22.00
2008,07,13,11,38,22.00
2008,07,13,11,39,22.10
2008,07,13,11,40,22.20
2008,07,13,11,41,22.10
2008,07,13,11,42,22.10
2008,07,13,11,43,22.00
2008,07,13,11,44,21.90
2008,07,13,11,45,21.90
2008,07,13,11,46,22.00
2008,07,13,11,47,21.80
2008,07,13,11,48,21.60
2008,07,13,11,49,21.60
2008,07,13,11,50,21.70
2008,07,13,11,51,21.80
2008,07,13,11,52,22.00
2008,07,13,11,53,22.20
2008,07,13,11,54,22.30
2008,07,13,11,55,22.30
2008,07,13,11,56,22.40
2008,07,13,11,57,22.50
2008,07,13,11,58,22.60
2008,07,13,11,59,22.60
2008,07,13,12,00,22.60
2008,07,13,12,01,22.60
2008,07,13,12,02,22.50
2008,07,13,12,03,22.40
2008,07,13,12,04,22.20
2008,07,13,12,05,22.10
2008,07,13,12,06,22.10
2008,07,13,12,07,22.10
2008,07,13,12,08,22.10
2008,07,13,12,09,22.20
2008,07,13,12,10,22.00
2008,07,13,12,11,22.00
2008,07,13,12,12,22.00
2008,07,13,12,13,22.00
2008,07,13,12,14,21.90
2008,07,13,12,15,21.60
2008,07,13,12,16,21.20
2008,07,13,12,17,21.00
2008,07,13,12,18,20.90
2008,07,13,12,19,20.90
2008,07,13,12,20,20.80
2008,07,13,12,21,20.60
2008,07,13,12,22,20.70
2008,07,13,12,23,20.90
2008,07,13,12,24,21.20
2008,07,13,12,25,21.30
2008,07,13,12,26,21.40
2008,07,13,12,27,21.40
2008,07,13,12,28,21.30
2008,07,13,12,29,21.40
2008,07,13,12,30,21.40
2008,07,13,12,31,21.40
2008,07,13,12,32,21.50
2008,07,13,12,33,21.60
2008,07,13,12,34,21.70
2008,07,13,12,35,21.60
2008,07,13,12,36,21.50
2008,07,13,12,37,21.30
2008,07,13,12,38,21.30
2008,07,13,12,39,21.20
2008,07,13,12,40,21.10
2008,07,13,12,41,21.10
2008,07,13,12,42,21.10
2008,07,13,12,43,21.30
2008,07,13,12,44,21.50
2008,07,13,12,45,21.40
2008,07,13,12,46,21.40
2008,07,13,12,47,21.40
2008,07,13,12,48,21.30
2008,07,13,12,49,21.50
2008,07,13,12,50,21.70
2008,07,13,12,51,21.90
2008,07,13,12,52,22.10
2008,07,13,12,53,22.30
2008,07,13,12,54,22.50
2008,07,13,12,55,22.60
2008,07,13,12,56,22.80
2008,07,13,12,57,23.00
2008,07,13,12,58,23.10
2008,07,13,12,59,23.20
2008,07,13,13,00,23.20
2008,07,13,13,01,23.10
2008,07,13,13,02,23.20
2008,07,13,13,03,23.20
2008,07,13,13,04,23.10
2008,07,13,13,05,22.90
2008,07,13,13,06,22.80
2008,07,13,13,07,22.80
2008,07,13,13,08,22.60
2008,07,13,13,09,22.50
2008,07,13,13,10,22.60
2008,07,13,13,11,22.60
2008,07,13,13,12,22.70
2008,07,13,13,13,22.80
2008,07,13,13,14,22.90
2008,07,13,13,15,22.90
2008,07,13,13,16,22.80
2008,07,13,13,17,22.60
2008,07,13,13,18,22.50
2008,07,13,13,19,22.30
2008,07,13,13,20,22.30
2008,07,13,13,21,22.30
2008,07,13,13,22,22.40
2008,07,13,13,23,22.30
2008,07,13,13,24,22.30
2008,07,13,13,25,22.40
2008,07,13,13,26,22.50
2008,07,13,13,27,22.50
2008,07,13,13,28,22.40
2008,07,13,13,29,22.40
2008,07,13,13,30,22.50
2008,07,13,13,31,22.70
2008,07,13,13,32,22.90
2008,07,13,13,33,22.90
2008,07,13,13,34,23.00
2008,07,13,13,35,23.10
2008,07,13,13,36,23.10
2008,07,13,13,37,23.00
2008,07,13,13,38,23.10
2008,07,13,13,39,23.20
2008,07,13,13,40,23.20
2008,07,13,13,41,23.20
2008,07,13,13,42,23.10
2008,07,13,13,43,23.20
2008,07,13,13,44,23.10
2008,07,13,13,45,23.20
2008,07,13,13,46,23.20
2008,07,13,13,47,23.30
2008,07,13,13,48,23.30
2008,07,13,13,49,23.30
2008,07,13,13,50,23.30
2008,07,13,13,51,23.30
2008,07,13,13,52,23.50
2008,07,13,13,53,23.70
2008,07,13,13,54,23.60
2008,07,13,13,55,23.40
2008,07,13,13,56,23.40
2008,07,13,13,57,23.50
2008,07,13,13,58,23.60
2008,07,13,13,59,23.60
2008,07,13,14,00,23.70
2008,07,13,14,01,23.80
2008,07,13,14,02,23.90
2008,07,13,14,03,23.90
2008,07,13,14,04,24.10
2008,07,13,14,05,24.30
2008,07,13,14,06,24.50
2008,07,13,14,07,24.50
2008,07,13,14,08,24.50
2008,07,13,14,09,24.40
2008,07,13,14,10,24.30
2008,07,13,14,11,24.40
2008,07,13,14,12,24.50
2008,07,13,14,13,24.70
2008,07,13,14,14,24.80
2008,07,13,14,15,24.90
2008,07,13,14,16,24.80
2008,07,13,14,17,24.70
2008,07,13,14,18,24.60
2008,07,13,14,19,24.70
2008,07,13,14,20,24.70
2008,07,13,14,21,24.60
2008,07,13,14,22,24.70
2008,07,13,14,23,24.70
2008,07,13,14,24,24.70
2008,07,13,14,25,24.60
2008,07,13,14,26,24.60
2008,07,13,14,27,24.50
2008,07,13,14,28,24.40
2008,07,13,14,29,24.30
2008,07,13,14,30,24.30
2008,07,13,14,31,24.30
2008,07,13,14,32,24.20
2008,07,13,14,33,24.30
2008,07,13,14,34,24.40
2008,07,13,14,35,24.60
2008,07,13,14,36,24.90
2008,07,13,14,37,25.20
2008,07,13,14,38,25.50
2008,07,13,14,39,25.70
2008,07,13,14,40,25.90
2008,07,13,14,41,26.00
2008,07,13,14,42,26.20
2008,07,13,14,43,26.40
2008,07,13,14,44,26.50
2008,07,13,14,45,26.60
2008,07,13,14,46,26.80
2008,07,13,14,47,26.80
2008,07,13,14,48,26.80
2008,07,13,14,49,26.90
2008,07,13,14,50,27.10
2008,07,13,14,51,27.20
2008,07,13,14,52,27.30
2008,07,13,14,53,27.30
2008,07,13,14,54,27.30
2008,07,13,14,55,27.40
2008,07,13,14,56,27.40
2008,07,13,14,57,27.60
2008,07,13,14,58,27.60
2008,07,13,14,59,27.60
2008,07,13,15,00,27.60
2008,07,13,15,01,27.70
2008,07,13,15,02,27.80
2008,07,13,15,03,27.80
2008,07,13,15,04,27.80
2008,07,13,15,05,27.70
2008,07,13,15,06,27.70
2008,07,13,15,07,27.60
2008,07,13,15,08,27.60
2008,07,13,15,09,27.60
2008,07,13,15,10,27.60
2008,07,13,15,11,27.60
2008,07,13,15,12,27.60
2008,07,13,15,13,27.40
2008,07,13,15,14,27.30
2008,07,13,15,15,27.30
2008,07,13,15,16,27.30
2008,07,13,15,17,27.30
2008,07,13,15,18,27.40
2008,07,13,15,19,27.40
2008,07,13,15,20,27.40
2008,07,13,15,21,27.60
2008,07,13,15,22,27.70
2008,07,13,15,23,27.80
2008,07,13,15,24,27.90
2008,07,13,15,25,27.90
2008,07,13,15,26,27.90
2008,07,13,15,27,27.70
2008,07,13,15,28,27.60
2008,07,13,15,29,27.60
2008,07,13,15,30,27.50
2008,07,13,15,31,27.40
2008,07,13,15,32,27.40
2008,07,13,15,33,27.50
2008,07,13,15,34,27.60
2008,07,13,15,35,27.60
2008,07,13,15,36,27.60
2008,07,13,15,37,27.50
2008,07,13,15,38,27.40
2008,07,13,15,39,27.30
2008,07,13,15,40,27.30
2008,07,13,15,41,27.20
2008,07,13,15,42,27.10
2008,07,13,15,43,27.10
2008,07,13,15,44,27.10
2008,07,13,15,45,27.10
2008,07,13,15,46,27.10
2008,07,13,15,47,27.10
2008,07,13,15,48,27.20
2008,07,13,15,49,27.20
2008,07,13,15,50,27.10
2008,07,13,15,51,27.10
2008,07,13,15,52,27.00
2008,07,13,15,53,26.90
2008,07,13,15,54,26.90
2008,07,13,15,55,26.80
2008,07,13,15,56,26.70
2008,07,13,15,57,26.70
2008,07,13,15,58,26.80
2008,07,13,15,59,26.80
2008,07,13,16,00,26.80
2008,07,13,16,01,26.80
2008,07,13,16,02,26.80
2008,07,13,16,03,26.80
2008,07,13,16,04,26.80
2008,07,13,16,05,26.80
2008,07,13,16,06,26.90
2008,07,13,16,07,27.00
2008,07,13,16,08,27.10
2008,07,13,16,09,27.10
2008,07,13,16,10,27.20
2008,07,13,16,11,27.20
2008,07,13,16,12,27.20
2008,07,13,16,13,27.20
2008,07,13,16,14,27.20
2008,07,13,16,15,27.30
2008,07,13,16,16,27.30
2008,07,13,16,17,27.30
2008,07,13,16,18,27.20
2008,07,13,16,19,27.10
2008,07,13,16,20,27.10
2008,07,13,16,21,27.10
2008,07,13,16,22,27.10
2008,07,13,16,23,26.90
2008,07,13,16,24,26.80
2008,07,13,16,25,26.70
2008,07,13,16,26,26.60
2008,07,13,16,27,26.50
2008,07,13,16,28,26.40
2008,07,13,16,29,26.40
2008,07,13,16,30,26.40
2008,07,13,16,31,26.50
2008,07,13,16,32,26.60
2008,07,13,16,33,26.70
2008,07,13,16,34,26.80
2008,07,13,16,35,26.90
2008,07,13,16,36,26.90
2008,07,13,16,37,27.10
2008,07,13,16,38,27.10
2008,07,13,16,39,27.10
2008,07,13,16,40,27.10
2008,07,13,16,41,27.10
2008,07,13,16,42,27.20
2008,07,13,16,43,27.20
2008,07,13,16,44,27.30
2008,07,13,16,45,27.30
2008,07,13,16,46,27.30
2008,07,13,16,47,27.30
2008,07,13,16,48,27.20
2008,07,13,16,49,27.10
2008,07,13,16,50,27.10
2008,07,13,16,51,27.10
2008,07,13,16,52,26.90
2008,07,13,16,53,26.90
2008,07,13,16,54,26.90
2008,07,13,16,55,26.80
2008,07,13,16,56,26.80
2008,07,13,16,57,26.80
2008,07,13,16,58,26.70
2008,07,13,16,59,26.70
2008,07,13,17,00,26.70
2008,07,13,17,01,26.80
2008,07,13,17,02,26.80
2008,07,13,17,03,26.90
2008,07,13,17,04,26.90
2008,07,13,17,05,26.90
2008,07,13,17,06,26.70
2008,07,13,17,07,26.70
2008,07,13,17,08,26.70
2008,07,13,17,09,26.70
2008,07,13,17,10,26.60
2008,07,13,17,11,26.60
2008,07,13,17,12,26.60
2008,07,13,17,13,26.60
2008,07,13,17,14,26.60
2008,07,13,17,15,26.60
2008,07,13,17,16,26.60
2008,07,13,17,17,26.70
2008,07,13,17,18,26.70
2008,07,13,17,19,26.60